CFG1AA OMDB-EDDB

Flight info

Callsign CFG1AA
Flight time N/A
Altitude 36000
Route RIDAP M557 TUMAK L602 GADSI M860 SEPTU DCT VUSEB M860 NINVA UM860 KONUK/N0454F380 UM860 CRM UL746 GOKPA UM10 TIVUG UL852 NEGEM DCT MAXOV DCT KARIL DCT KEKED DCT KELEL DCT VAGON T205 NUKRO NUKRO1L
Aircraft A20N/M-SDE2E3FGHIRWXY/LB1

Departure

Time N/A
Airport Dubai International Airport (OMDB)

Arrival

Time 2026-05-03 21:16
Airport Berlin Brandenburg Airport (EDDB)
Time Latitude Longitude Altitude Speed Heading
2026-05-03 20:15 48.57808 21.21510 38145 ft 415 kts 320°
2026-05-03 20:15 48.62046 21.15649 38145 ft 415 kts 320°
2026-05-03 20:16 48.66301 21.09744 38147 ft 415 kts 320°
2026-05-03 20:16 48.70542 21.03838 38144 ft 415 kts 320°
2026-05-03 20:17 48.74657 20.98096 38148 ft 415 kts 320°
2026-05-03 20:17 48.78886 20.92178 38156 ft 415 kts 320°
2026-05-03 20:18 48.83118 20.86241 38153 ft 414 kts 320°
2026-05-03 20:18 48.87326 20.80323 38155 ft 414 kts 320°
2026-05-03 20:19 48.91555 20.74361 38156 ft 413 kts 320°
2026-05-03 20:19 48.95739 20.68452 38160 ft 413 kts 320°
2026-05-03 20:20 48.99942 20.62498 38159 ft 414 kts 320°
2026-05-03 20:20 49.04144 20.56533 38159 ft 414 kts 320°
2026-05-03 20:21 49.08374 20.50515 38153 ft 414 kts 320°
2026-05-03 20:21 49.12557 20.44543 38155 ft 414 kts 320°
2026-05-03 20:22 49.16744 20.38557 38158 ft 413 kts 320°
2026-05-03 20:22 49.20909 20.32588 38150 ft 414 kts 319°
2026-05-03 20:23 49.25066 20.26617 38147 ft 414 kts 319°
2026-05-03 20:23 49.29242 20.20600 38157 ft 414 kts 319°
2026-05-03 20:24 49.33434 20.14543 38157 ft 413 kts 319°
2026-05-03 20:24 49.37591 20.08526 38150 ft 413 kts 319°
2026-05-03 20:25 49.41750 20.02494 38149 ft 412 kts 319°
2026-05-03 20:25 49.45804 19.96600 38143 ft 412 kts 319°
2026-05-03 20:26 49.49955 19.90554 38141 ft 413 kts 318°
2026-05-03 20:26 49.54121 19.84464 38147 ft 413 kts 319°
2026-05-03 20:27 49.58268 19.78387 38147 ft 413 kts 319°
2026-05-03 20:27 49.62435 19.72270 38147 ft 413 kts 319°
2026-05-03 20:28 49.66561 19.66201 38134 ft 413 kts 318°
2026-05-03 20:28 49.70650 19.60168 38122 ft 413 kts 318°
2026-05-03 20:29 49.74794 19.54040 38121 ft 414 kts 318°
2026-05-03 20:29 49.78946 19.47883 38103 ft 414 kts 318°
2026-05-03 20:30 49.82971 19.41898 38104 ft 413 kts 318°
2026-05-03 20:30 49.87107 19.35737 38094 ft 414 kts 318°
2026-05-03 20:31 49.91172 19.29664 38088 ft 414 kts 317°
2026-05-03 20:31 49.95315 19.23461 38080 ft 414 kts 317°
2026-05-03 20:32 49.99450 19.17254 38075 ft 414 kts 317°
2026-05-03 20:32 50.03507 19.11148 38076 ft 414 kts 317°
2026-05-03 20:33 50.07635 19.04916 38076 ft 414 kts 317°
2026-05-03 20:33 50.11466 18.99124 38080 ft 414 kts 317°
2026-05-03 20:34 50.15586 18.92878 38077 ft 414 kts 317°
2026-05-03 20:34 50.19693 18.86634 38077 ft 414 kts 317°
2026-05-03 20:35 50.23790 18.80392 38073 ft 414 kts 317°
2026-05-03 20:35 50.27890 18.74129 38067 ft 413 kts 317°
2026-05-03 20:36 50.32003 18.67828 38067 ft 414 kts 317°
2026-05-03 20:36 50.36028 18.61649 38066 ft 414 kts 316°
2026-05-03 20:37 50.40065 18.55435 38060 ft 414 kts 316°
2026-05-03 20:37 50.44155 18.49123 38051 ft 413 kts 316°
2026-05-03 20:38 50.48241 18.42800 38058 ft 414 kts 316°
2026-05-03 20:38 50.52324 18.36467 38052 ft 413 kts 316°
2026-05-03 20:39 50.56402 18.30124 38046 ft 413 kts 315°
2026-05-03 20:39 50.60441 18.23826 38042 ft 414 kts 315°
2026-05-03 20:40 50.64546 18.17407 38046 ft 414 kts 315°
2026-05-03 20:40 50.68612 18.11035 38036 ft 414 kts 315°
2026-05-03 20:41 50.72704 18.04607 38037 ft 414 kts 315°
2026-05-03 20:41 50.76659 17.98377 38029 ft 414 kts 315°
2026-05-03 20:42 50.80721 17.91960 38027 ft 414 kts 315°
2026-05-03 20:42 50.84778 17.85535 38027 ft 414 kts 315°
2026-05-03 20:43 50.88837 17.79092 38025 ft 414 kts 315°
2026-05-03 20:43 50.92902 17.72620 38017 ft 415 kts 315°
2026-05-03 20:44 50.96890 17.66254 38019 ft 415 kts 315°
2026-05-03 20:44 51.00789 17.60018 38009 ft 415 kts 315°
2026-05-03 20:45 51.04854 17.53497 38013 ft 415 kts 315°
2026-05-03 20:45 51.08896 17.46995 38011 ft 415 kts 315°
2026-05-03 20:46 51.12876 17.40577 38010 ft 415 kts 315°
2026-05-03 20:46 51.16811 17.34216 38002 ft 415 kts 314°
2026-05-03 20:47 51.20805 17.27743 38000 ft 415 kts 314°
2026-05-03 20:47 51.24829 17.21202 38008 ft 415 kts 314°
2026-05-03 20:48 51.28711 17.14406 38000 ft 415 kts 308°
2026-05-03 20:48 51.32098 17.06949 37998 ft 414 kts 302°
2026-05-03 20:49 51.34913 16.99092 37994 ft 415 kts 298°
2026-05-03 20:49 51.37534 16.91173 37990 ft 415 kts 298°
2026-05-03 20:50 51.40216 16.83045 37986 ft 415 kts 298°
2026-05-03 20:50 51.42791 16.75225 37986 ft 415 kts 298°
2026-05-03 20:51 51.45606 16.67122 37983 ft 415 kts 300°
2026-05-03 20:51 51.48476 16.59282 37977 ft 415 kts 300°
2026-05-03 20:52 51.51361 16.51383 37974 ft 415 kts 300°
2026-05-03 20:52 51.54274 16.43375 37972 ft 415 kts 300°
2026-05-03 20:53 51.57162 16.35408 37970 ft 415 kts 300°
2026-05-03 20:53 51.60063 16.27381 37971 ft 415 kts 299°
2026-05-03 20:54 51.62959 16.19346 37970 ft 416 kts 299°
2026-05-03 20:54 51.67288 16.07281 37964 ft 416 kts 299°
2026-05-03 20:55 51.70110 15.99384 37961 ft 416 kts 299°
2026-05-03 20:55 51.73002 15.91269 37957 ft 416 kts 299°
2026-05-03 20:56 51.75876 15.83175 37957 ft 416 kts 299°
2026-05-03 20:56 51.78737 15.75094 37954 ft 416 kts 299°
2026-05-03 20:57 51.81601 15.66976 37952 ft 416 kts 299°
2026-05-03 20:57 51.84455 15.58862 37948 ft 417 kts 298°
2026-05-03 20:58 51.87305 15.50733 37947 ft 417 kts 298°
2026-05-03 20:58 51.90134 15.42639 37409 ft 407 kts 298°
2026-05-03 20:59 51.91519 15.38666 36209 ft 411 kts 298°
2026-05-03 20:59 51.92912 15.34666 34710 ft 424 kts 298°
2026-05-03 20:59 51.94333 15.30573 32802 ft 437 kts 297°
2026-05-03 20:59 51.95815 15.26301 30710 ft 450 kts 297°
2026-05-03 21:00 51.97322 15.21953 28657 ft 457 kts 297°
2026-05-03 21:00 51.97837 15.20463 27963 ft 459 kts 297°
2026-05-03 21:00 52.00150 15.13771 24754 ft 465 kts 297°
2026-05-03 21:00 52.01716 15.09227 22499 ft 467 kts 296°
2026-05-03 21:01 52.03239 15.04808 20914 ft 455 kts 296°
2026-05-03 21:01 52.04745 15.00439 19630 ft 438 kts 296°
2026-05-03 21:01 52.06145 14.96366 18202 ft 429 kts 295°
2026-05-03 21:01 52.07574 14.92187 16660 ft 421 kts 295°
2026-05-03 21:02 52.08954 14.88135 15168 ft 414 kts 296°
2026-05-03 21:02 52.10325 14.84107 13696 ft 406 kts 296°
2026-05-03 21:02 52.11649 14.80208 12342 ft 397 kts 296°
2026-05-03 21:02 52.12921 14.76461 11703 ft 384 kts 296°
2026-05-03 21:03 52.14105 14.72980 11452 ft 368 kts 296°
2026-05-03 21:03 52.15329 14.69385 11226 ft 354 kts 296°
2026-05-03 21:03 52.16489 14.65962 10963 ft 349 kts 296°
2026-05-03 21:03 52.17661 14.62491 10704 ft 346 kts 296°
2026-05-03 21:04 52.18793 14.59142 10541 ft 333 kts 296°
2026-05-03 21:04 52.19892 14.55889 10428 ft 319 kts 296°
2026-05-03 21:04 52.20933 14.52807 10295 ft 306 kts 296°
2026-05-03 21:04 52.21943 14.49808 10154 ft 294 kts 295°
2026-05-03 21:05 52.22903 14.46952 10031 ft 283 kts 295°
2026-05-03 21:05 52.23840 14.44163 9904 ft 273 kts 295°
2026-05-03 21:05 52.24697 14.41602 9611 ft 273 kts 295°
2026-05-03 21:05 52.25612 14.38862 9261 ft 273 kts 295°
2026-05-03 21:06 52.26526 14.36127 8920 ft 272 kts 295°
2026-05-03 21:06 52.27429 14.33419 8586 ft 272 kts 294°
2026-05-03 21:06 52.28323 14.30743 8259 ft 271 kts 294°
2026-05-03 21:06 52.29232 14.28013 7930 ft 270 kts 294°
2026-05-03 21:07 52.30133 14.25309 7601 ft 270 kts 294°
2026-05-03 21:07 52.31021 14.22638 7275 ft 269 kts 294°
2026-05-03 21:07 52.31913 14.19953 6952 ft 268 kts 295°
2026-05-03 21:07 52.32801 14.17276 6633 ft 267 kts 295°
2026-05-03 21:08 52.33687 14.14606 6314 ft 266 kts 295°
2026-05-03 21:08 52.34563 14.11963 6003 ft 265 kts 295°
2026-05-03 21:08 52.35443 14.09304 5680 ft 265 kts 295°
2026-05-03 21:08 52.36318 14.06661 5367 ft 263 kts 295°
2026-05-03 21:09 52.37185 14.04039 5061 ft 262 kts 295°
2026-05-03 21:09 52.38042 14.01440 4749 ft 261 kts 295°
2026-05-03 21:09 52.38867 13.98940 4455 ft 259 kts 294°
2026-05-03 21:09 52.39674 13.96489 4163 ft 258 kts 294°
2026-05-03 21:10 52.40516 13.93925 3859 ft 256 kts 294°
2026-05-03 21:10 52.41365 13.91336 3550 ft 254 kts 294°
2026-05-03 21:10 52.42200 13.88790 3248 ft 253 kts 295°
2026-05-03 21:10 52.43007 13.86259 3035 ft 253 kts 290°
2026-05-03 21:11 52.43245 13.83556 2997 ft 230 kts 256°
2026-05-03 21:11 52.42753 13.81311 3008 ft 214 kts 246°
2026-05-03 21:11 52.42205 13.79137 2996 ft 200 kts 248°
2026-05-03 21:11 52.41737 13.77110 3114 ft 180 kts 248°
2026-05-03 21:12 52.41299 13.75198 3040 ft 177 kts 248°
2026-05-03 21:12 52.40857 13.73310 2823 ft 176 kts 249°
2026-05-03 21:12 52.40414 13.71451 2581 ft 175 kts 249°
2026-05-03 21:12 52.39968 13.69594 2358 ft 175 kts 249°
2026-05-03 21:13 52.39524 13.67744 2117 ft 174 kts 249°
2026-05-03 21:13 52.39087 13.65925 1884 ft 168 kts 250°
2026-05-03 21:13 52.38672 13.64194 1679 ft 152 kts 250°
2026-05-03 21:13 52.38300 13.62657 1450 ft 140 kts 251°
2026-05-03 21:14 52.37946 13.61216 1243 ft 135 kts 251°
2026-05-03 21:14 52.37608 13.59791 1067 ft 135 kts 251°
2026-05-03 21:14 52.37271 13.58367 883 ft 133 kts 250°
2026-05-03 21:14 52.36940 13.56951 725 ft 133 kts 250°
2026-05-03 21:15 52.36601 13.55519 576 ft 134 kts 250°
2026-05-03 21:15 52.36267 13.54109 412 ft 134 kts 250°
2026-05-03 21:15 52.35924 13.52661 249 ft 135 kts 249°
2026-05-03 21:15 52.35611 13.51345 166 ft 127 kts 249°
2026-05-03 21:16 52.35346 13.50222 165 ft 79 kts 249°
2026-05-03 21:16 52.35231 13.49645 165 ft 32 kts 267°
2026-05-03 21:16 52.35241 13.49402 165 ft 16 kts 279°
2026-05-03 21:16 52.35288 13.49241 165 ft 16 kts 332°
2026-05-03 21:17 52.35369 13.49327 165 ft 16 kts 70°
2026-05-03 21:17 52.35396 13.49442 165 ft 16 kts 69°
2026-05-03 21:17 52.35451 13.49678 165 ft 16 kts 70°
2026-05-03 21:17 52.35494 13.49855 165 ft 17 kts 69°
2026-05-03 21:18 52.35540 13.50046 165 ft 19 kts 69°
2026-05-03 21:18 52.35589 13.50256 165 ft 20 kts 69°
2026-05-03 21:18 52.35643 13.50480 165 ft 21 kts 69°
2026-05-03 21:18 52.35696 13.50707 165 ft 22 kts 70°
2026-05-03 21:19 52.35775 13.50819 165 ft 16 kts 342°
2026-05-03 21:19 52.35888 13.50751 165 ft 18 kts 339°
2026-05-03 21:19 52.36009 13.50674 165 ft 19 kts 341°
2026-05-03 21:19 52.36134 13.50597 165 ft 19 kts 338°
2026-05-03 21:20 52.36238 13.50529 165 ft 16 kts 339°
2026-05-03 21:20 52.36292 13.50507 165 ft 5 kts 38°
2026-05-03 21:20 52.36304 13.50566 165 ft 6 kts 71°
2026-05-03 21:20 52.36319 13.50629 165 ft 2 kts 69°
2026-05-03 21:21 52.36320 13.50633 165 ft 0 kts 69°